Terminal Aerodrome Forecast
Issued by NWS

Home | Current Version | Previous Version | Graphics & Text | Print | Product List | Glossary Off
Versions: 1 2 3 4 5 6 7 8 9 10 11 12 13 14 15 16 17 18 19 20 21 22 23 24 25 26 27 28 29 30 31 32 33 34 35 36 37 38 39 40 41 42 43 44

000
FTUS43 KDDC 151746
TAFGCK
TAF
KGCK 151746Z 1518/1618 03015KT 4SM BR OVC005
     FM152000 03012KT 4SM BR BKN007
     FM152300 04008KT P6SM BKN010
     FM160200 VRB05KT 4SM BR BKN005
     FM160500 VRB05KT 1SM BR OVC002
     FM161600 16011KT P6SM BKN007=

USA.gov is the U.S. government's official web portal to all federal, state and local government web resources and services.